User: anonymous   Login
Location: Unspecified
(0.0000°N, 0.0000°E)
Time: 04:36:24
(UTC+00:00)
Language:

MAST - Orbit

View from above orbital plane
View from above orbital plane
View from above satellite
View from above satellite

Ground track
Ground track

The orbit data is extracted from the following two-line orbital elements,

1 31126U 07012K   17324.84949043  .00000206  00000-0  53948-4 0  9992
2 31126  98.0814 270.4122 0091322  50.6926 310.2325 14.56585600562681
Epoch (UTC): 20 November 2017 20:23:15
Eccentricity: 0.0091322
inclination: 98.0814°
perigee height: 639 km
apogee height: 769 km
right ascension of ascending node: 270.4122°
argument of perigee: 50.6926°
revolutions per day: 14.56585600
mean anomaly at epoch: 310.2325°
orbit number at epoch: 56268

The dashed part of the orbit path shows where the satellite is in the earth's shadow,  

DLR